Find Starlink 5597

NORAD ID: 55403 Int'l Des: 2023-014 Owner: SPXS Country: US Constellation: starlink operational
LEOCIRCULAR

リアルタイム位置

3D地球を読み込み中...

Starlink 5597について

説明を読み込み中...

次回通過

Passes for default location (London). Set your location on the main map for personalized predictions.

高度履歴

Loading altitude history...

軌道要素

1 55403U 23014N 26121.21592571 .00001268 00000-0 11406-3 0 9993
2 55403 69.9991 292.0036 0002684 274.5250 85.5603 14.98317155179928
Epoch: May 1, 2026 • Age: 7 hours

現在のステータス

高度 585.0 km
速度 7.57 km/s
衛星直下点 67.52°N, 46.26°W
打ち上げ日 Jan 31, 2023
運用期間 3.2 years
タイプ internet

技術仕様

分類 Payload
質量 305.00 kg
乾燥質量 290.00 kg
総質量 305.00 kg
長さ 0.20 m
直径 2.80 m
スパン 9.00 m
形状 Box + pan
製造者 SPXS
バスタイプ Starlink
フェーズステータス In Orbit
所有者/国 SPXS/US

Most Searched